Weather reports worldwide

Advertisment
Helgoland, Germany (10015): temperature & dewpoint: 06.11.2019 16:00:00 - 12.11.2019 16:00:00 (CET)Helgoland, Germany (10015): temperature 5cm: 06.11.2019 16:00:00 - 12.11.2019 16:00:00 (CET)Helgoland, Germany (10015): wind speed: 06.11.2019 16:00:00 - 12.11.2019 16:00:00 (CET)Helgoland, Germany (10015): wind direction: 06.11.2019 16:00:00 - 12.11.2019 16:00:00 (CET)Helgoland, Germany (10015): reduced air pressure: 06.11.2019 16:00:00 - 12.11.2019 16:00:00 (CET)Helgoland, Germany (10015): visibility: 06.11.2019 16:00:00 - 12.11.2019 16:00:00 (CET)Helgoland, Germany (10015): sunshine duration: 06.11.2019 16:00:00 - 12.11.2019 16:00:00 (CET)Helgoland, Germany (10015): precipitation: 06.11.2019 16:00:00 - 12.11.2019 16:00:00 (CET)
Date & Time tt [°C] td [°C] tt 5cm [°C] ff [km/h] ff [kn] dd ppp [hPa] vv [km] sd [min] rr [mm]
12.11.2019 16:00:00 7,1 2,5 6,6 29 16 S 998,2 36 8 0,0
12.11.2019 15:00:00 7,4 2,1 7,3 - - - 997,7 27 3 0,0
12.11.2019 14:00:00 7,1 2,3 6,9 - - - 997,9 21 0 0,0
12.11.2019 13:00:00 6,9 2,9 6,9 - - - 997,9 19 0 0,0
12.11.2019 12:00:00 6,9 3,3 7,0 - - - 998,2 16 0 0,0
12.11.2019 11:00:00 7,0 4,0 7,2 - - - 997,8 13 0 0,0
12.11.2019 10:00:00 7,2 4,7 7,0 - - - 997,4 16 0 0,0
12.11.2019 09:00:00 6,5 4,1 6,2 - - - 997,0 20 0 0,0
12.11.2019 08:00:00 6,4 3,5 6,2 - - - 996,8 25 0 0,0
12.11.2019 07:00:00 6,8 3,7 6,5 - - - 996,6 26 0 0,0
12.11.2019 06:00:00 6,7 3,7 6,5 - - - 996,5 26 0 0,0
12.11.2019 05:00:00 7,1 4,1 6,7 - - - 996,5 22 0 0,0
12.11.2019 04:00:00 7,4 4,7 6,7 - - - 996,4 19 0 0,0
12.11.2019 03:00:00 7,6 4,8 7,0 - - - 996,5 20 0 0,0
12.11.2019 02:00:00 7,4 4,8 7,2 - - - 996,7 20 0 0,0
12.11.2019 01:00:00 7,6 5,1 7,4 - - - 996,9 20 0 0,0
12.11.2019 00:00:00 7,6 5,1 7,4 - - - 996,9 16 0 0,0
11.11.2019 23:00:00 7,0 4,4 6,8 - - - 997,1 17 0 0,0
11.11.2019 22:00:00 7,4 4,3 7,1 - - - 997,2 18 0 0,0
11.11.2019 21:00:00 7,6 3,6 7,2 - - - 997,6 24 0 0,0
11.11.2019 20:00:00 6,8 3,6 6,5 - - - 998,0 17 0 0,0
11.11.2019 19:00:00 6,5 3,3 6,1 - - - 998,7 18 0 0,0
11.11.2019 18:00:00 6,9 3,7 6,5 - - - 999,0 22 0 0,0
11.11.2019 17:00:00 7,3 3,8 7,1 - - - 999,6 22 0 0,0
11.11.2019 16:00:00 7,4 4,0 6,8 - - - 1000,1 21 0 0,0
11.11.2019 15:00:00 7,2 3,9 7,2 - - - 1001,2 22 0 0,0
11.11.2019 14:00:00 7,2 4,1 7,3 - - - 1002,5 24 0 0,0
11.11.2019 13:00:00 6,7 3,1 6,9 - - - 1003,3 27 0 0,0
11.11.2019 12:00:00 6,0 4,3 6,3 - - - 1004,3 13 1 0,0
11.11.2019 11:00:00 5,5 4,1 6,0 - - - 1005,5 10 12 0,0
11.11.2019 10:00:00 6,4 4,4 6,3 - - - 1005,9 11 36 0,0
11.11.2019 09:00:00 6,7 3,8 6,0 - - - 1006,1 15 2 0,0
11.11.2019 08:00:00 6,8 3,8 5,6 - - - 1006,5 16 0 0,0
11.11.2019 07:00:00 6,9 3,7 5,9 - - - 1007,1 14 0 0,0
11.11.2019 06:00:00 7,1 3,9 6,2 - - - 1007,9 11 0 0,0
11.11.2019 05:00:00 7,5 3,9 6,5 - - - 1008,9 13 0 0,0
11.11.2019 04:00:00 7,8 4,1 6,6 - - - 1009,9 14 0 0,0
11.11.2019 03:00:00 8,0 4,6 6,8 - - - 1010,2 17 0 0,0
11.11.2019 02:00:00 8,5 5,5 7,9 - - - 1010,7 16 0 0,0
11.11.2019 01:00:00 8,5 6,7 7,9 - - - 1011,0 11 0 0,0
11.11.2019 00:00:00 8,5 6,7 7,4 - - - 1011,1 12 0 0,1
10.11.2019 23:00:00 9,3 7,2 8,1 - - - 1011,4 13 0 0,0
10.11.2019 22:00:00 9,4 7,0 8,3 - - - 1011,7 17 0 0,0
10.11.2019 21:00:00 9,4 6,7 8,2 - - - 1011,9 20 0 0,0
10.11.2019 20:00:00 9,4 6,9 8,4 - - - 1011,7 18 0 0,0
10.11.2019 19:00:00 10,5 4,9 9,1 - - - 1011,8 45 0 0,0
10.11.2019 18:00:00 10,5 6,5 9,3 - - - 1011,5 35 0 0,0
10.11.2019 17:00:00 10,0 7,4 9,2 - - - 1011,2 19 0 0,3
10.11.2019 16:00:00 9,3 6,9 9,0 - - - 1011,1 14 20 0,0
10.11.2019 15:00:00 9,2 6,2 8,7 - - - 1010,7 18 13 0,0
10.11.2019 14:00:00 8,4 5,5 9,2 - - - 1010,7 16 8 0,0
10.11.2019 13:00:00 8,2 5,6 9,2 - - - 1010,8 13 2 0,0
10.11.2019 12:00:00 8,2 5,7 8,6 - - - 1010,7 15 0 0,0
10.11.2019 11:00:00 7,4 5,1 7,0 - - - 1010,9 14 0 0,1
10.11.2019 10:00:00 7,2 4,9 6,7 - - - 1010,5 14 0 0,1
10.11.2019 09:00:00 7,4 5,1 6,7 - - - 1009,8 14 0 0,0
10.11.2019 08:00:00 7,4 5,0 7,2 - - - 1009,0 15 0 0,0
10.11.2019 07:00:00 7,6 4,9 7,0 - - - 1008,4 16 0 0,0
10.11.2019 06:00:00 7,4 4,8 6,7 - - - 1007,9 17 0 0,4
10.11.2019 05:00:00 7,6 4,9 6,8 - - - 1007,5 13 0 0,0
10.11.2019 04:00:00 7,8 4,7 7,4 - - - 1007,0 19 0 0,0
10.11.2019 03:00:00 7,9 4,9 6,8 - - - 1006,7 19 0 0,9
10.11.2019 02:00:00 8,0 5,1 6,9 - - - 1006,3 9 0 0,1
10.11.2019 01:00:00 8,1 4,5 7,7 - - - 1006,1 25 0 0,0
10.11.2019 00:00:00 8,1 4,9 7,5 - - - 1005,7 20 0 0,0
09.11.2019 23:00:00 7,8 5,2 7,4 - - - 1005,6 13 0 0,0
09.11.2019 22:00:00 8,1 4,7 7,7 - - - 1005,3 21 0 0,0
09.11.2019 21:00:00 8,4 5,2 7,7 - - - 1005,3 14 0 0,1
09.11.2019 20:00:00 8,2 5,9 8,0 - - - 1005,3 10 0 0,0
09.11.2019 19:00:00 7,9 5,4 7,3 - - - 1005,6 6 0 0,0
09.11.2019 18:00:00 7,7 5,1 7,3 - - - 1005,7 14 0 0,0
09.11.2019 17:00:00 6,9 5,4 6,9 - - - 1005,7 10 0 0,0
09.11.2019 16:00:00 8,0 5,7 7,9 - - - 1005,3 15 7 0,0
09.11.2019 15:00:00 8,8 5,5 8,9 - - - 1005,2 23 30 0,0
09.11.2019 14:00:00 8,5 4,6 7,9 - - - 1005,4 26 3 0,0
09.11.2019 13:00:00 8,6 5,7 9,5 - - - 1005,7 14 47 0,0
09.11.2019 12:00:00 8,7 5,1 9,5 - - - 1006,0 20 56 0,0
09.11.2019 11:00:00 9,1 4,6 10,3 - - - 1006,4 28 59 0,0
09.11.2019 10:00:00 9,0 4,2 9,3 - - - 1006,6 32 60 0,0
09.11.2019 09:00:00 8,5 4,2 6,9 - - - 1006,7 33 12 0,0
09.11.2019 08:00:00 8,5 4,4 6,0 - - - 1006,7 29 0 0,0
09.11.2019 07:00:00 8,4 4,6 6,0 - - - 1006,6 27 0 0,0
09.11.2019 06:00:00 8,6 4,8 6,2 - - - 1006,9 25 0 0,0
09.11.2019 05:00:00 9,1 4,7 6,7 - - - 1007,1 27 0 0,0
09.11.2019 04:00:00 9,1 4,0 6,2 - - - 1007,1 30 0 0,0
09.11.2019 03:00:00 8,7 4,4 3,3 - - - 1007,1 28 0 0,0
09.11.2019 02:00:00 8,7 4,3 5,0 - - - 1007,5 26 0 0,0
09.11.2019 01:00:00 8,7 4,6 4,6 - - - 1007,5 31 0 0,0
09.11.2019 00:00:00 9,0 4,5 6,2 - - - 1007,9 30 0 0,0
08.11.2019 23:00:00 9,2 4,6 6,7 - - - 1008,0 34 0 0,0
08.11.2019 22:00:00 9,5 5,0 7,7 - - - 1008,0 33 0 0,0
08.11.2019 21:00:00 9,6 5,1 7,7 - - - 1008,0 38 0 0,0
08.11.2019 20:00:00 9,7 5,2 7,4 - - - 1007,7 37 0 0,0
08.11.2019 19:00:00 9,6 5,4 7,3 - - - 1007,5 37 0 0,0
08.11.2019 18:00:00 9,6 5,2 7,5 - - - 1007,4 35 0 0,0
08.11.2019 17:00:00 9,3 5,6 7,3 - - - 1007,3 31 7 0,0
08.11.2019 16:00:00 9,6 4,9 8,5 - - - 1006,9 47 60 0,0
08.11.2019 15:00:00 9,7 4,4 9,6 - - - 1006,3 36 60 0,0
08.11.2019 14:00:00 9,9 5,1 10,8 - - - 1006,1 38 60 0,0
08.11.2019 13:00:00 9,8 5,1 10,9 - - - 1006,2 27 60 0,0
08.11.2019 12:00:00 9,8 5,7 11,1 - - - 1006,4 29 60 0,0
08.11.2019 11:00:00 8,9 5,3 10,0 - - - 1006,3 24 60 0,0
08.11.2019 10:00:00 8,6 5,7 9,0 - - - 1005,7 20 60 0,0
08.11.2019 09:00:00 8,0 5,5 7,2 - - - 1004,9 19 20 0,0
08.11.2019 08:00:00 7,8 5,5 6,4 - - - 1004,3 20 0 0,0
08.11.2019 07:00:00 7,7 5,4 6,9 - - - 1003,7 21 0 0,0
08.11.2019 06:00:00 8,1 5,6 7,1 - - - 1003,0 21 0 0,0
08.11.2019 05:00:00 8,1 5,4 7,3 - - - 1002,7 22 0 0,0
08.11.2019 04:00:00 8,3 5,7 7,6 - - - 1002,2 21 0 0,0
08.11.2019 03:00:00 8,5 5,7 7,8 - - - 1001,6 22 0 0,0
08.11.2019 02:00:00 9,0 6,2 8,4 - - - 1001,0 24 0 0,0
08.11.2019 01:00:00 9,3 6,5 8,9 - - - 1000,5 18 0 0,0
08.11.2019 00:00:00 9,7 6,6 9,0 - - - 999,9 21 0 0,0
07.11.2019 23:00:00 9,8 6,5 9,0 - - - 999,3 32 0 0,0
07.11.2019 22:00:00 9,2 8,1 8,6 - - - 998,9 12 0 2,4
07.11.2019 21:00:00 8,8 7,5 8,2 - - - 998,7 6 0 2,2
07.11.2019 20:00:00 8,4 7,3 8,0 - - - 998,7 5 0 1,3
07.11.2019 19:00:00 7,6 6,2 7,2 - - - 998,8 6 0 1,0
07.11.2019 18:00:00 7,7 5,9 7,2 - - - 998,9 9 0 0,0
07.11.2019 17:00:00 7,6 5,6 7,4 - - - 998,9 13 0 0,0
07.11.2019 16:00:00 7,1 5,3 7,1 - - - 999,2 13 0 0,0
07.11.2019 15:00:00 7,0 5,0 7,2 - - - 999,4 14 0 0,0
07.11.2019 14:00:00 7,0 5,0 7,4 - - - 999,8 18 0 0,0
07.11.2019 13:00:00 7,6 5,4 8,2 - - - 999,8 23 1 0,0
07.11.2019 12:00:00 7,7 4,8 7,6 - - - 1000,2 32 13 0,0
07.11.2019 11:00:00 8,3 3,7 8,0 - - - 1000,6 48 0 0,0
07.11.2019 10:00:00 8,3 4,1 7,1 - - - 1000,5 61 0 0,0
07.11.2019 09:00:00 8,3 3,6 6,7 - - - 1000,5 47 0 0,0
07.11.2019 08:00:00 8,0 3,7 6,0 - - - 1000,5 53 0 0,0
07.11.2019 07:00:00 8,2 3,4 6,4 - - - 1000,5 58 0 0,0
07.11.2019 06:00:00 7,7 3,3 5,2 - - - 1000,5 56 0 0,5
07.11.2019 05:00:00 7,6 3,4 5,8 - - - 1000,8 52 0 1,4
07.11.2019 04:00:00 7,6 3,3 6,5 - - - 1001,1 75 0 0,0
07.11.2019 03:00:00 7,1 3,2 5,4 - - - 1001,3 67 0 0,0
07.11.2019 02:00:00 7,5 3,1 5,2 - - - 1001,3 73 0 0,0
07.11.2019 01:00:00 6,8 2,7 5,1 - - - 1001,6 25 0 0,6
07.11.2019 00:00:00 7,3 2,4 5,2 - - - 1001,7 75 0 0,0
06.11.2019 23:00:00 7,2 2,3 3,8 - - - 1001,8 75 0 0,0
06.11.2019 22:00:00 7,2 1,4 4,4 - - - 1002,1 67 0 0,0
06.11.2019 21:00:00 7,1 2,1 4,8 - - - 1001,9 65 0 0,0
06.11.2019 20:00:00 7,2 2,4 5,0 - - - 1001,8 68 0 0,0
06.11.2019 19:00:00 6,9 3,2 5,2 - - - 1001,9 67 0 0,8
06.11.2019 18:00:00 7,5 4,0 6,3 - - - 1001,6 46 0 0,1
06.11.2019 17:00:00 7,5 3,0 5,7 - - - 1001,3 75 0 0,1
06.11.2019 16:00:00 7,5 3,2 6,7 - - - 1001,3 21 0 0,1

tt = temperature
td = dewpoint
tt 5cm = temperature 5cm
ff = wind speed
dd = wind direction
ppp = reduced air pressure
vv = visibility
sd = sunshine duration
rr = precipitation

Next stations